User: anonymous   Login
Location: Igon
(43.1667°N, 0.2333°W)
Time: 09:21:31
(UTC+00:00)
Language:

FALCON 9 DEB - Orbit

View from above orbital plane
View from above orbital plane
View from above satellite
View from above satellite

Ground track
Ground track

The orbit data is extracted from the following two-line orbital elements,

1 46087U 20055BN  21063.52049041  .00018875  00000-0  20909-3 0  9996
2 46087  53.0085 350.1263 0010379 233.7286 126.2768 15.62994126 37275
Epoch (UTC): 04 March 2021 12:29:30
Eccentricity: 0.0010379
inclination: 53.0085°
perigee height: 372 km
apogee height: 386 km
right ascension of ascending node: 350.1263°
argument of perigee: 233.7286°
revolutions per day: 15.62994126
mean anomaly at epoch: 126.2768°
orbit number at epoch: 3727

The dashed part of the orbit path shows where the satellite is in the earth's shadow,  

DLR